Regional Weather Roundup
Issued by NWS

Home | Current Version | Previous Version | Graphics & Text | Print | Product List | Glossary On
Versions: 1 2 3 4 5 6 7 8 9 10 11 12 13 14 15 16 17 18 19 20 21 22 23 24 25 26 27 28 29 30 31 32 33 34 35 36 37 38 39 40 41 42 43 44 45 46 47 48 49 50
000
ASUS43 KLOT 310710
RWRIL

ILLINOIS REGIONAL WEATHER ROUNDUP
NATIONAL WEATHER SERVICE CHICAGO/ROMEOVILLE IL
100 AM CST SAT JAN 31 2015

NOTE: "FAIR" INDICATES FEW OR NO CLOUDS BELOW 12,000 FEET WITH NO
SIGNIFICANT WEATHER AND/OR OBSTRUCTIONS TO VISIBILITY.

* THESE STATIONS ARE NOT UNDER NWS QUALITY CONTROL. THEY ALSO MAY NOT
  REPORT WEATHER SUCH AS PRECIPITATION OR FOG.

ILZ001-002-007-009-015-016-024-310800-
NORTHWEST ILLINOIS

CITY           SKY/WX    TMP DP  RH WIND       PRES   REMARKS
MOLINE         CLOUDY    25  19  78 SW5       30.32F WCI  19
STERLING*      CLOUDY    25  19  80 CALM      30.32F
SAVANNA*       PTCLDY    22  17  83 S5        30.31F WCI  15
$$

ILZ003-004-008-010-011-017-018-310800-
NORTH CENTRAL ILLINOIS

CITY           SKY/WX    TMP DP  RH WIND       PRES   REMARKS
ROCKFORD       CLOUDY    22  16  78 S6        30.31F WCI  14
FREEPORT*      CLOUDY    24  19  80 SW10      30.31F WCI  13
ROCHELLE*      CLOUDY    21  17  84 S8        30.31F WCI  11
DE KALB*       CLOUDY    20  16  84 S7        30.31F WCI  11
PERU*          CLOUDY    25  21  85 S5        30.34F WCI  19
$$

ILZ005-006-012>014-019>023-310800-
NORTHEAST ILLINOIS

CITY           SKY/WX    TMP DP  RH WIND       PRES   REMARKS
CHICAGO-OHARE  CLOUDY    21  14  74 S6        30.31F WCI  13
CHICAGO-MIDWAY CLOUDY    24  15  68 S8        30.33F WCI  15
AURORA         CLOUDY    22  16  78 S3        30.32F
LANSING*       PTCLDY    19  16  87 S3        30.34F
JOLIET*        CLOUDY    21  17  86 CALM      30.34F
WAUKEGAN       CLOUDY    21  15  78 SW7       30.30F WCI  12
DUPAGE AIRPORT CLOUDY    22  16  78 S6        30.31F WCI  14
KANKAKEE*      MOCLDY    24  21  87 S6        30.36F WCI  17
WHEELING       CLOUDY    22  14  71 S6        30.32F WCI  14
MORRIS*        CLOUDY    22  20  91 CALM      30.33F
ROMEOVILLE*    CLOUDY    22  18  83 S5        30.33F WCI  16
NORTHERLY ISL    N/A     24  14  65 S6          N/A  WCI  17
$$

LMZ740>746-310800-
SOUTHERN LAKE MICHIGAN

STATION/POSITION SKY/WX   TEMP    WIND        PRES    VSBY  WAVE
                          AIR SEA DIR/SP/G                  HT/PER
                          (F)     (DEG/KT/KT) (MB)    (MI)  (FT/S)
WAUKEGAN HARBOR            22     200/ 14/ 17   N/A
HARRISON CRIB              25     190/ 14/ 15   N/A
BURNHAM HARBOR             24     190/  5/  7   N/A
CALUMET HARBOR             23     180/  4/  5   N/A
MICHIGAN CITY              22     180/  8/  9   N/A
$$

ILZ025>027-034>036-040-047-049-050-058-095>099-310800-
WEST-CENTRAL ILLINOIS

CITY           SKY/WX    TMP DP  RH WIND       PRES   REMARKS
QUINCY         MOCLDY    26  19  74 S8        30.34F WCI  18
GALESBURG*     MOCLDY    25  20  84 S6        30.33F WCI  18
MACOMB*        CLEAR     26  21  79 S6        30.35F WCI  20
JACKSONVILLE*  PTCLDY    29  21  72 S5        30.36F WCI  24
PITTSFIELD*    MOCLDY    28  21  74 S5        30.36F WCI  23
$$

ILZ028>032-037-038-041>044-048-051>054-059>061-310800-
CENTRAL ILLINOIS

CITY           SKY/WX    TMP DP  RH WIND       PRES   REMARKS
PONTIAC        CLOUDY    29  24  81 S8        30.35F WCI  21
BLOOMINGTON    MOCLDY    24  21  88 SW8       30.35F WCI  15
DECATUR        CLEAR     25  20  81 S6        30.38F WCI  18
PEORIA         CLEAR     24  19  81 S5        30.35F WCI  18
LACON*         MOCLDY    22  17  83 CALM      30.34F
LINCOLN*       CLEAR     25  22  88 CALM      30.39F
SPRINGFIELD    CLEAR     25  19  78 S6        30.37F WCI  18
TAYLORVILLE    CLEAR     25  21  86 S5        30.38F WCI  19
$$

ILZ033-039-045-046-055>057-062-063-310800-
EAST-CENTRAL ILLINOIS

CITY           SKY/WX    TMP DP  RH WIND       PRES   REMARKS
CHAMPAIGN      CLEAR     22  18  85 S7        30.37F WCI  13
DANVILLE*      CLEAR     21  19  91 CALM      30.35F
RANTOUL*       CLEAR     24  20  85 S3        30.36F
MATTOON        CLEAR     23  17  78 S5        30.38F WCI  17
PARIS*         CLEAR     22  20  91 CALM      30.40S
$$

ILZ079-100>102-310800-
SOUTHWEST ILLINOIS

CITY           SKY/WX    TMP DP  RH WIND       PRES   REMARKS
ALTON          MOCLDY    28  22  79 CALM      30.39F
BELLEVILLE     CLOUDY    27  23  87 CALM      30.39F
CAHOKIA*       CLOUDY    30  22  72 CALM      30.39F
SPARTA*        CLOUDY    29  22  76 SE5       30.40F WCI  23
$$

ILZ064>066-069>071-074>076-080>082-084>086-088>090-092>094-310800-
SOUTH-CENTRAL ILLINOIS

CITY           SKY/WX    TMP DP  RH WIND       PRES   REMARKS
CARBONDALE     CLOUDY    24  20  84 CALM      30.41F
CAIRO*         MOCLDY    31  22  68 E3        30.41F
EFFINGHAM*     CLEAR     22  19  88 CALM      30.42S
MARION         MOCLDY    27  23  86 CALM      30.41F
MT. VERNON     MOCLDY    21  16  79 CALM      30.41S
CENTRALIA*     MOCLDY    24  21  88 CALM      30.40F
SALEM*         PTCLDY    26  22  85 CALM      30.40F
METROPOLIS*    MOCLDY    26  24  91 CALM      30.42S
$$

ILZ067-068-072-073-078-083-087-091-310800-
SOUTHEAST ILLINOIS

CITY           SKY/WX    TMP DP  RH WIND       PRES   REMARKS
LAWRENCEVILLE  CLEAR     23  19  85 CALM      30.42F
FLORA*         CLEAR     23  22  98 CALM      30.41F
FAIRFIELD*     PTCLDY    23  20  89 CALM      30.41F
HARRISBURG*    MOCLDY    25  24  93 CALM      30.43F
ROBINSON*      CLEAR     21  20  96 CALM      30.43S
CARMI*         FAIR      24  23  96 CALM      30.42F
$$

ABBREVIATIONS USED IN REMARKS
   TC - TEMPERATURE IN CELSIUS
  WCI - WIND CHILL INDEX
   HX - HEAT INDEX
  VSB - VISIBILITY
$$



USA.gov is the U.S. government's official web portal to all federal, state and local government web resources and services.